| time (UTC) | temp C | wind direction | speed KPH | gust KPH | rain 1hr cm | rain 24hr cm | rain mn cm | humidity % | barometer mb |
| 20260505075831 | 13 | 94 | 9.7 | 17.7 | 0.00 | 1.70 | 0.00 | 90 | 1009.2 |
| 20260505075350 | 13 | 85 | 11.3 | 19.3 | 0.00 | 1.70 | 0.00 | 90 | 1009.2 |
| 20260505074825 | 13 | 73 | 9.7 | 19.3 | 0.00 | 1.70 | 0.00 | 89 | 1009.2 |
| 20260505074322 | 13 | 34 | 9.7 | 16.1 | 0.00 | 1.70 | 0.00 | 90 | 1009.2 |
| 20260505073818 | 13 | 60 | 8.0 | 17.7 | 0.00 | 1.70 | 0.00 | 90 | 1009.3 |
| 20260505073316 | 13 | 43 | 9.7 | 19.3 | 0.00 | 1.70 | 0.00 | 90 | 1009.4 |
| 20260505072832 | 13 | 64 | 11.3 | 17.7 | 0.00 | 1.70 | 0.00 | 91 | 1009.4 |
| 20260505072330 | 13 | 74 | 9.7 | 20.9 | 0.00 | 1.70 | 0.00 | 92 | 1009.3 |
| 20260505071826 | 13 | 67 | 11.3 | 17.7 | 0.00 | 1.70 | 0.00 | 93 | 1009.4 |
| 20260505071323 | 13 | 65 | 3.2 | 16.1 | 0.00 | 1.70 | 0.00 | 94 | 1009.3 |
| 20260505070819 | 13 | 26 | 9.7 | 16.1 | 0.00 | 1.70 | 0.00 | 94 | 1009.4 |
| 20260505070314 | 12 | 333 | 6.4 | 9.7 | 0.00 | 1.70 | 0.00 | 95 | 1009.3 |
| 20260505065829 | 12 | 69 | 4.8 | 12.9 | 0.00 | 2.31 | 0.00 | 95 | 1009.4 |
| 20260505065328 | 12 | 30 | 8.0 | 9.7 | 0.00 | 2.31 | 0.00 | 94 | 1009.5 |
| 20260505064824 | 12 | 57 | 6.4 | 9.7 | 0.00 | 2.31 | 0.00 | 95 | 1009.6 |
| 20260505064336 | 12 | 86 | 4.8 | 11.3 | 0.00 | 2.31 | 0.00 | 95 | 1009.6 |
| 20260505063829 | 12 | 34 | 3.2 | 6.4 | 0.00 | 2.31 | 0.00 | 95 | 1009.6 |
| 20260505063326 | 12 | 64 | 1.6 | 6.4 | 0.00 | 2.31 | 0.00 | 95 | 1009.7 |
| 20260505062822 | 12 | 64 | 4.8 | 8.0 | 0.00 | 2.31 | 0.00 | 95 | 1009.7 |
| 20260505062339 | 12 | 44 | 4.8 | 8.0 | 0.00 | 2.31 | 0.00 | 95 | 1009.7 |
| 20260505061854 | 12 | 50 | 1.6 | 4.8 | 0.00 | 2.31 | 0.00 | 95 | 1009.7 |
| 20260505061330 | 12 | 50 | 3.2 | 8.0 | 0.00 | 2.31 | 0.00 | 95 | 1009.7 |
| 20260505060823 | 11 | 44 | 3.2 | 9.7 | 0.00 | 2.31 | 0.00 | 95 | 1009.8 |
| 20260505060314 | 11 | 38 | 4.8 | 12.9 | 0.00 | 2.31 | 0.00 | 95 | 1009.8 |
| 20260505055854 | 11 | 42 | 6.4 | 12.9 | 0.00 | 2.59 | 0.00 | 95 | 1009.8 |
| 20260505055328 | 11 | 56 | 1.6 | 14.5 | 0.00 | 2.59 | 0.00 | 95 | 1009.7 |
| 20260505054822 | 11 | 9 | 1.6 | 14.5 | 0.00 | 2.59 | 0.00 | 95 | 1009.7 |
| 20260505054320 | 10 | 43 | 8.0 | 14.5 | 0.00 | 2.59 | 0.00 | 95 | 1009.7 |
| 20260505053815 | 10 | 54 | 6.4 | 11.3 | 0.00 | 2.59 | 0.00 | 95 | 1009.6 |
| 20260505053331 | 10 | 39 | 3.2 | 8.0 | 0.00 | 2.59 | 0.00 | 95 | 1009.6 |
| 20260505052825 | 10 | 25 | 4.8 | 12.9 | 0.00 | 2.59 | 0.00 | 95 | 1009.7 |
| 20260505052344 | 10 | 355 | 6.4 | 11.3 | 0.00 | 2.59 | 0.00 | 95 | 1009.7 |
| 20260505051816 | 10 | 23 | 4.8 | 6.4 | 0.00 | 2.59 | 0.00 | 95 | 1009.7 |
| 20260505051333 | 10 | 25 | 3.2 | 6.4 | 0.00 | 2.59 | 0.00 | 95 | 1009.7 |
| 20260505050829 | 10 | 355 | 3.2 | 6.4 | 0.00 | 2.59 | 0.00 | 95 | 1009.8 |
| 20260505050347 | 10 | 19 | 1.6 | 4.8 | 0.00 | 2.59 | 0.00 | 95 | 1009.8 |
| 20260505041323 | 10 | 36 | 3.2 | 6.4 | 0.00 | 2.69 | 0.00 | 95 | 1009.8 |
| 20260505040820 | 10 | 36 | 4.8 | 8.0 | 0.00 | 2.69 | 0.00 | 95 | 1009.7 |
| 20260505040318 | 11 | 30 | 6.4 | 9.7 | 0.00 | 2.69 | 0.00 | 95 | 1009.8 |
| 20260505035831 | 11 | 29 | 6.4 | 9.7 | 0.00 | 2.79 | 0.00 | 95 | 1009.9 |
| 20260505035329 | 10 | 32 | 6.4 | 9.7 | 0.00 | 2.79 | 0.00 | 95 | 1010.0 |
| 20260505034824 | 10 | 34 | 4.8 | 8.0 | 0.00 | 2.79 | 0.00 | 95 | 1010.1 |
| 20260505034324 | 10 | 59 | 6.4 | 6.4 | 0.00 | 2.79 | 0.00 | 95 | 1010.2 |
| 20260505033839 | 10 | 28 | 1.6 | 4.8 | 0.00 | 2.79 | 0.00 | 95 | 1010.1 |
| 20260505033337 | 10 | 28 | 3.2 | 4.8 | 0.00 | 2.79 | 0.00 | 94 | 1010.1 |
| 20260505032833 | 10 | 28 | 3.2 | 3.2 | 0.00 | 2.79 | 0.00 | 95 | 1010.1 |
| 20260505032331 | 10 | 28 | 0.0 | 3.2 | 0.00 | 2.79 | 0.00 | 95 | 1010.1 |
| 20260505031827 | 10 | 28 | 1.6 | 3.2 | 0.00 | 2.79 | 0.00 | 95 | 1010.1 |
| 20260505031325 | 10 | 28 | 3.2 | 6.4 | 0.00 | 2.79 | 0.00 | 94 | 1010.2 |
| 20260505030818 | 10 | 28 | 3.2 | 6.4 | 0.00 | 2.79 | 0.00 | 94 | 1010.2 |
| 20260505030317 | 10 | 28 | 3.2 | 6.4 | 0.00 | 2.79 | 0.00 | 94 | 1010.2 |
| 20260505025833 | 10 | 28 | 1.6 | 3.2 | 0.00 | 2.79 | 0.00 | 95 | 1010.2 |
| 20260505025330 | 10 | 28 | 1.6 | 6.4 | 0.00 | 2.79 | 0.00 | 95 | 1010.3 |
| 20260505024825 | 10 | 28 | 4.8 | 6.4 | 0.00 | 2.79 | 0.00 | 95 | 1010.3 |
| 20260505024322 | 10 | 28 | 4.8 | 6.4 | 0.00 | 2.79 | 0.00 | 95 | 1010.4 |
| 20260505023817 | 10 | 28 | 3.2 | 6.4 | 0.00 | 2.79 | 0.00 | 95 | 1010.5 |
| 20260505023315 | 10 | 28 | 3.2 | 4.8 | 0.00 | 2.79 | 0.00 | 95 | 1010.6 |
| 20260505022830 | 10 | 28 | 1.6 | 4.8 | 0.00 | 2.79 | 0.00 | 95 | 1010.6 |
| 20260505022322 | 10 | 28 | 3.2 | 4.8 | 0.00 | 2.79 | 0.00 | 95 | 1010.5 |
| 20260505021837 | 10 | 28 | 3.2 | 6.4 | 0.00 | 2.79 | 0.00 | 95 | 1010.5 |
| 20260505021333 | 10 | 351 | 1.6 | 4.8 | 0.00 | 2.79 | 0.00 | 95 | 1010.6 |
| 20260505020827 | 10 | 348 | 1.6 | 3.2 | 0.00 | 2.79 | 0.00 | 95 | 1010.7 |
| 20260505020325 | 10 | 348 | 1.6 | 3.2 | 0.00 | 2.79 | 0.00 | 95 | 1010.8 |
| 20260505015820 | 10 | 348 | 0.0 | 1.6 | 0.00 | 2.79 | 0.00 | 95 | 1010.8 |
| 20260505015337 | 10 | 348 | 1.6 | 4.8 | 0.00 | 2.79 | 0.00 | 94 | 1010.8 |
| 20260505014833 | 10 | 348 | 1.6 | 4.8 | 0.00 | 2.79 | 0.00 | 95 | 1010.9 |
| 20260505014351 | 10 | 347 | 3.2 | 4.8 | 0.00 | 2.79 | 0.00 | 95 | 1010.8 |
| 20260505013847 | 10 | 348 | 0.0 | 3.2 | 0.00 | 2.79 | 0.00 | 95 | 1010.9 |
| 20260505013325 | 10 | 348 | 1.6 | 6.4 | 0.00 | 2.79 | 0.00 | 95 | 1010.9 |
| 20260505012820 | 9 | 348 | 4.8 | 6.4 | 0.00 | 2.79 | 0.00 | 95 | 1011.0 |
| 20260505012317 | 9 | 21 | 1.6 | 3.2 | 0.00 | 2.79 | 0.00 | 95 | 1011.0 |
| 20260505011833 | 9 | 21 | 0.0 | 1.6 | 0.00 | 2.79 | 0.00 | 94 | 1011.2 |
| 20260505011330 | 9 | 21 | 0.0 | 1.6 | 0.00 | 2.79 | 0.00 | 95 | 1011.1 |
| 20260505010825 | 9 | 20 | 0.0 | 0.0 | 0.00 | 2.79 | 0.00 | 94 | 1011.2 |
| 20260505010324 | 9 | 20 | 0.0 | 0.0 | 0.00 | 2.79 | 0.00 | 95 | 1011.3 |
| 20260505005817 | 9 | 20 | 0.0 | 0.0 | 0.00 | 2.79 | 0.00 | 94 | 1011.3 |
| 20260505005315 | 9 | 20 | 0.0 | 0.0 | 0.00 | 2.79 | 0.00 | 95 | 1011.3 |
| 20260505004830 | 8 | 20 | 0.0 | 0.0 | 0.00 | 2.79 | 0.00 | 94 | 1011.3 |
| 20260505004329 | 8 | 20 | 0.0 | 3.2 | 0.00 | 2.79 | 0.00 | 94 | 1011.2 |
| 20260505003823 | 9 | 20 | 0.0 | 3.2 | 0.00 | 2.79 | 0.00 | 94 | 1011.3 |
| 20260505003341 | 8 | 20 | 0.0 | 3.2 | 0.00 | 2.79 | 0.00 | 94 | 1011.3 |
| 20260505002815 | 9 | 20 | 0.0 | 3.2 | 0.00 | 2.79 | 0.00 | 94 | 1011.3 |
| 20260505002312 | 10 | 20 | 1.6 | 3.2 | 0.00 | 2.79 | 0.00 | 94 | 1011.3 |
| 20260505001829 | 9 | 20 | 1.6 | 3.2 | 0.00 | 2.79 | 0.00 | 94 | 1011.4 |
| 20260505001326 | 10 | 20 | 1.6 | 3.2 | 0.00 | 2.79 | 0.00 | 94 | 1011.3 |
| 20260505000823 | 10 | 20 | 1.6 | 3.2 | 0.00 | 2.79 | 0.00 | 94 | 1011.2 |
| 20260505000320 | 10 | 20 | 0.0 | 3.2 | 0.00 | 2.79 | 0.00 | 94 | 1011.2 |
| 20260504235815 | 10 | 20 | 1.6 | 3.2 | 0.00 | 2.79 | 0.00 | 94 | 1011.4 |
| 20260504235331 | 10 | 20 | 0.0 | 3.2 | 0.00 | 2.79 | 0.00 | 94 | 1011.3 |
| 20260504234826 | 10 | 20 | 0.0 | 4.8 | 0.00 | 2.79 | 0.00 | 94 | 1011.3 |
| 20260504234327 | 10 | 20 | 3.2 | 4.8 | 0.00 | 2.79 | 0.00 | 94 | 1011.4 |
| 20260504233820 | 10 | 9 | 1.6 | 4.8 | 0.00 | 2.79 | 0.00 | 94 | 1011.4 |
| 20260504233337 | 10 | 9 | 1.6 | 4.8 | 0.00 | 2.79 | 0.00 | 94 | 1011.4 |
| 20260504232826 | 10 | 9 | 3.2 | 4.8 | 0.00 | 2.79 | 0.00 | 94 | 1011.5 |
| 20260504232326 | 10 | 9 | 3.2 | 4.8 | 0.00 | 2.79 | 0.00 | 94 | 1011.6 |
| 20260504231820 | 10 | 9 | 3.2 | 4.8 | 0.00 | 2.79 | 0.00 | 94 | 1011.6 |
| 20260504231316 | 10 | 351 | 1.6 | 3.2 | 0.00 | 2.79 | 0.00 | 94 | 1011.7 |
| 20260504230830 | 10 | 351 | 1.6 | 3.2 | 0.00 | 2.79 | 0.00 | 94 | 1011.6 |
| 20260504230327 | 10 | 17 | 1.6 | 3.2 | 0.00 | 2.79 | 0.00 | 94 | 1011.7 |
| 20260504225941 | 10 | 17 | 1.6 | 1.6 | 0.00 | 2.79 | 0.00 | 94 | 1011.7 |
| 20260504225325 | 10 | 17 | 0.0 | 1.6 | 0.00 | 2.79 | 0.00 | 94 | 1011.7 |
| 20260504224820 | 10 | 17 | 0.0 | 3.2 | 0.00 | 2.79 | 0.00 | 94 | 1011.8 |
| 20260504224315 | 10 | 17 | 0.0 | 3.2 | 0.00 | 2.79 | 0.00 | 93 | 1011.9 |
| 20260504223900 | 10 | 17 | 1.6 | 3.2 | 0.00 | 2.79 | 0.00 | 94 | 1011.9 |
| 20260504223357 | 10 | 17 | 3.2 | 3.2 | 0.00 | 2.79 | 0.00 | 93 | 1011.9 |
| 20260504222850 | 10 | 17 | 0.0 | 3.2 | 0.00 | 2.79 | 0.00 | 93 | 1012.0 |
| 20260504222328 | 10 | 17 | 0.0 | 0.0 | 0.00 | 2.79 | 0.00 | 94 | 1012.0 |
| 20260504221825 | 10 | 17 | 0.0 | 0.0 | 0.00 | 2.79 | 0.00 | 93 | 1012.0 |
| 20260504221322 | 11 | 17 | 0.0 | 0.0 | 0.00 | 2.79 | 0.00 | 93 | 1012.0 |
| 20260504220817 | 11 | 16 | 0.0 | 0.0 | 0.00 | 2.79 | 0.00 | 93 | 1012.2 |
| 20260504220335 | 11 | 16 | 0.0 | 0.0 | 0.00 | 2.79 | 0.00 | 93 | 1012.3 |
| 20260504215822 | 11 | 16 | 0.0 | 1.6 | 0.00 | 2.79 | 0.56 | 93 | 1012.3 |
| 20260504215320 | 11 | 17 | 0.0 | 1.6 | 0.00 | 2.79 | 0.56 | 93 | 1012.2 |
| 20260504214814 | 11 | 16 | 0.0 | 1.6 | 0.00 | 2.79 | 0.56 | 93 | 1012.3 |
| 20260504214332 | 11 | 16 | 1.6 | 4.8 | 0.00 | 2.79 | 0.56 | 93 | 1012.3 |
| 20260504213827 | 11 | 16 | 1.6 | 8.0 | 0.00 | 2.79 | 0.56 | 93 | 1012.3 |
| 20260504213327 | 11 | 341 | 3.2 | 8.0 | 0.00 | 2.79 | 0.56 | 93 | 1012.3 |
| 20260504212824 | 11 | 335 | 3.2 | 6.4 | 0.00 | 2.79 | 0.56 | 93 | 1012.4 |
| 20260504212323 | 11 | 30 | 1.6 | 3.2 | 0.00 | 2.79 | 0.56 | 93 | 1012.4 |
| 20260504211838 | 11 | 30 | 1.6 | 1.6 | 0.00 | 2.79 | 0.56 | 93 | 1012.4 |
| 20260504211335 | 11 | 30 | 0.0 | 1.6 | 0.00 | 2.79 | 0.56 | 93 | 1012.4 |
| 20260504210847 | 12 | 30 | 0.0 | 0.0 | 0.00 | 2.79 | 0.56 | 93 | 1012.5 |
| 20260504210326 | 12 | 30 | 0.0 | 0.0 | 0.00 | 2.79 | 0.56 | 92 | 1012.5 |
| 20260504205842 | 12 | 30 | 0.0 | 0.0 | 0.00 | 2.79 | 0.56 | 92 | 1012.5 |
| 20260504205318 | 12 | 30 | 0.0 | 0.0 | 0.00 | 2.79 | 0.56 | 92 | 1012.6 |
| 20260504204835 | 12 | 30 | 0.0 | 0.0 | 0.00 | 2.79 | 0.56 | 92 | 1012.7 |
| 20260504204352 | 12 | 30 | 0.0 | 0.0 | 0.00 | 2.79 | 0.56 | 92 | 1012.7 |
| 20260504203848 | 12 | 30 | 0.0 | 0.0 | 0.00 | 2.79 | 0.56 | 92 | 1012.7 |
| 20260504203325 | 12 | 30 | 0.0 | 0.0 | 0.00 | 2.79 | 0.56 | 92 | 1012.7 |
| 20260504202840 | 13 | 30 | 0.0 | 0.0 | 0.00 | 2.79 | 0.56 | 92 | 1012.7 |
| 20260504202332 | 13 | 30 | 0.0 | 0.0 | 0.00 | 2.79 | 0.56 | 92 | 1012.6 |
| 20260504201827 | 13 | 30 | 0.0 | 0.0 | 0.00 | 2.79 | 0.56 | 91 | 1012.6 |
| 20260504201327 | 13 | 30 | 0.0 | 0.0 | 0.00 | 2.79 | 0.56 | 91 | 1012.5 |
| 20260504200823 | 13 | 30 | 0.0 | 1.6 | 0.00 | 2.79 | 0.56 | 91 | 1012.4 |
| 20260504200341 | 13 | 30 | 0.0 | 3.2 | 0.00 | 2.79 | 0.56 | 91 | 1012.3 |
| 20260504195815 | 13 | 30 | 1.6 | 3.2 | 0.00 | 2.90 | 0.56 | 91 | 1012.4 |
| 20260504195332 | 13 | 29 | 0.0 | 3.2 | 0.00 | 2.90 | 0.56 | 91 | 1012.4 |
| 20260504194828 | 13 | 29 | 1.6 | 4.8 | 0.00 | 2.90 | 0.56 | 91 | 1012.3 |
| 20260504194326 | 13 | 29 | 1.6 | 6.4 | 0.00 | 2.90 | 0.56 | 91 | 1012.4 |
| 20260504193821 | 13 | 329 | 3.2 | 6.4 | 0.00 | 2.90 | 0.56 | 90 | 1012.4 |
| 20260504193318 | 13 | 345 | 0.0 | 1.6 | 0.00 | 2.90 | 0.56 | 90 | 1012.4 |
| 20260504192814 | 13 | 345 | 0.0 | 3.2 | 0.00 | 2.90 | 0.56 | 90 | 1012.4 |
| 20260504192333 | 13 | 345 | 1.6 | 4.8 | 0.00 | 2.90 | 0.56 | 90 | 1012.4 |
| 20260504191848 | 13 | 345 | 1.6 | 4.8 | 0.00 | 2.90 | 0.56 | 90 | 1012.5 |
| 20260504191325 | 13 | 345 | 0.0 | 4.8 | 0.00 | 2.90 | 0.56 | 90 | 1012.5 |
| 20260504190819 | 13 | 345 | 3.2 | 4.8 | 0.00 | 2.90 | 0.56 | 90 | 1012.5 |
| 20260504190335 | 13 | 340 | 1.6 | 6.4 | 0.00 | 2.90 | 0.56 | 89 | 1012.5 |
| 20260504185852 | 14 | 333 | 3.2 | 6.4 | 0.00 | 3.10 | 0.56 | 89 | 1012.5 |
| 20260504185329 | 14 | 314 | 4.8 | 8.0 | 0.00 | 3.10 | 0.56 | 88 | 1012.4 |
| 20260504184824 | 14 | 293 | 6.4 | 8.0 | 0.00 | 3.10 | 0.56 | 88 | 1012.3 |
| 20260504184338 | 14 | 304 | 4.8 | 8.0 | 0.00 | 3.10 | 0.56 | 89 | 1012.3 |
| 20260504183831 | 14 | 325 | 3.2 | 6.4 | 0.00 | 3.10 | 0.56 | 89 | 1012.3 |
| 20260504183330 | 14 | 302 | 3.2 | 8.0 | 0.00 | 3.10 | 0.56 | 89 | 1012.2 |
| 20260504182826 | 14 | 314 | 4.8 | 8.0 | 0.00 | 3.10 | 0.56 | 90 | 1012.2 |
| 20260504182343 | 14 | 312 | 4.8 | 8.0 | 0.00 | 3.10 | 0.56 | 91 | 1012.2 |
| 20260504181817 | 14 | 215 | 0.0 | 1.6 | 0.00 | 3.10 | 0.56 | 91 | 1012.1 |
| 20260504181338 | 14 | 215 | 0.0 | 0.0 | 0.00 | 3.10 | 0.56 | 91 | 1012.1 |
| 20260504180835 | 14 | 214 | 0.0 | 1.6 | 0.00 | 3.10 | 0.56 | 91 | 1012.1 |
| 20260504180331 | 14 | 214 | 0.0 | 1.6 | 0.00 | 3.10 | 0.56 | 90 | 1012.1 |
| 20260504175826 | 14 | 214 | 0.0 | 0.0 | 0.10 | 3.10 | 0.56 | 90 | 1012.1 |
| 20260504175324 | 15 | 214 | 0.0 | 0.0 | 0.10 | 3.10 | 0.56 | 90 | 1012.0 |
| 20260504174818 | 15 | 214 | 0.0 | 0.0 | 0.10 | 3.10 | 0.56 | 90 | 1012.1 |
| 20260504174333 | 15 | 214 | 0.0 | 1.6 | 0.10 | 3.10 | 0.56 | 89 | 1012.0 |
| 20260504173828 | 15 | 214 | 1.6 | 1.6 | 0.10 | 3.10 | 0.56 | 89 | 1012.1 |
| 20260504173347 | 15 | 213 | 0.0 | 1.6 | 0.10 | 3.10 | 0.56 | 88 | 1012.0 |
| 20260504172823 | 15 | 213 | 1.6 | 4.8 | 0.10 | 3.10 | 0.56 | 87 | 1012.0 |
| 20260504172321 | 15 | 213 | 3.2 | 4.8 | 0.10 | 3.10 | 0.56 | 87 | 1012.0 |
| 20260504171818 | 15 | 213 | 0.0 | 3.2 | 0.10 | 3.10 | 0.56 | 86 | 1012.0 |
| 20260504171334 | 15 | 213 | 1.6 | 8.0 | 0.10 | 3.10 | 0.56 | 85 | 1012.0 |
| 20260504170828 | 15 | 213 | 3.2 | 8.0 | 0.10 | 3.10 | 0.56 | 86 | 1011.9 |
| 20260504170326 | 15 | 234 | 4.8 | 6.4 | 0.10 | 3.10 | 0.56 | 85 | 1011.9 |
| 20260504160326 | 16 | 133 | 3.2 | 8.0 | 0.00 | 3.00 | 0.53 | 82 | 1012.1 |
| 20260504150823 | 16 | 279 | 4.8 | 6.4 | 0.00 | 3.00 | 0.53 | 84 | 1012.3 |
| 20260504150320 | 16 | 271 | 1.6 | 6.4 | 0.00 | 3.00 | 0.53 | 84 | 1012.3 |
| 20260504141323 | 16 | 184 | 3.2 | 6.4 | 0.00 | 3.00 | 0.53 | 82 | 1012.7 |
| 20260504140817 | 16 | 144 | 1.6 | 6.4 | 0.00 | 3.00 | 0.53 | 82 | 1012.7 |
| 20260504140336 | 16 | 144 | 1.6 | 11.3 | 0.00 | 3.00 | 0.53 | 81 | 1012.8 |
| 20260504130817 | 16 | 121 | 6.4 | 11.3 | 0.00 | 3.00 | 0.53 | 80 | 1013.0 |
| 20260504130316 | 16 | 95 | 4.8 | 12.9 | 0.00 | 3.00 | 0.53 | 81 | 1013.0 |
| 20260504110332 | 14 | 182 | 4.8 | 11.3 | 0.10 | 3.00 | 0.53 | 89 | 1013.9 |
| 20260504100316 | 14 | 172 | 6.4 | 11.3 | 0.41 | 2.90 | 0.51 | 91 | 1013.9 |
| 20260504081851 | 13 | 186 | 6.4 | 11.3 | 0.61 | 3.30 | 0.36 | 94 | 1014.2 |
| 20260504081348 | 13 | 181 | 6.4 | 9.7 | 0.61 | 3.30 | 0.36 | 94 | 1014.1 |
| 20260504080841 | 12 | 159 | 4.8 | 11.3 | 0.51 | 3.20 | 0.33 | 94 | 1014.2 |
| 20260504080318 | 12 | 145 | 8.0 | 11.3 | 0.51 | 3.10 | 0.33 | 94 | 1014.1 |